Weather History for KCAK - April, 2013

Change the Weather History Date:

Monday, April 15, 2013

  Actual Average Record
Temperature  
Mean Temperature 60 °F 49 °F  
Max Temperature 68 °F 60 °F 82 °F (2010)
Min Temperature 51 °F 39 °F 18 °F (1943)
Degree Days  
Heating Degree Days 5 16  
Month to date heating degree days 263 279  
Since 1 July heating degree days 5467 5674  
Cooling Degree Days 0 0  
Month to date cooling degree days 0 0  
Year to date cooling degree days 0 0  
Growing Degree Days 10 (Base 50)    
Moisture  
Dew Point 45 °F    
Average Humidity 59    
Maximum Humidity 67    
Minimum Humidity 50    
Precipitation  
Precipitation 0.00 in 0.12 in 0.64 in (2001)
Month to date precipitation 2.65 1.80  
Year to date precipitation 8.90 9.70  
Snow  
Snow 0.00 in 0.10 in - ()
Month to date snowfall T 2.1  
Since 1 July snowfall 46.9 46.8  
Snow Depth 0.00 in    
Sea Level Pressure  
Sea Level Pressure 30.01 in    
Wind  
Wind Speed 14 mph (South)    
Max Wind Speed 25 mph    
Max Gust Speed 30 mph    
Visibility 10 miles    
Events      
T = Trace of Precipitation, MM = Missing Value Source: NWS Daily Summary

Daily Weather History Graph

Daily Weather History Graph

Search for Another Location

Airport or City:

Trip Planner

Search our weather history database for the weather conditions in past years. The results will help you decide how hot, cold, wet, or windy it might be!

Date:

Astronomy

Apr. 15, 2013 Rise Set
Actual Time 6:46 AM EDT 8:05 PM EDT
Civil Twilight 6:17 AM EDT 8:34 PM EDT
Nautical Twilight 5:43 AM EDT 9:08 PM EDT
Astronomical Twilight 5:07 AM EDT 9:44 PM EDT
Moon 10:09 AM EDT (4/15) 12:18 AM EDT (4/15)
Length of Visible Light 14h 16m
Length of Day
13h 19m
Waxing Crescent, 24% of the Moon is Illuminated
Apr 15
Waxing Crescent
Apr 18
First Quarter
Apr 25
Full
May 2
Last Quarter
May 9
New

Hourly Weather History & Observations

Time (EDT) Temp. Dew Point Humidity Pressure Visibility Wind Dir Wind Speed Gust Speed Precip Events Conditions
12:51 AM 54.0 °F 37.0 °F 53% 29.98 in 10.0 mi ESE 8.1 mph - N/A   Overcast
1:51 AM 54.0 °F 36.0 °F 51% 29.96 in 10.0 mi SE 9.2 mph - N/A   Scattered Clouds
2:51 AM 53.1 °F 36.0 °F 52% 29.95 in 10.0 mi SE 10.4 mph - N/A   Scattered Clouds
3:51 AM 53.1 °F 36.0 °F 52% 29.95 in 10.0 mi SE 10.4 mph - N/A   Scattered Clouds
4:51 AM 52.0 °F 37.0 °F 57% 29.97 in 10.0 mi SSE 10.4 mph - N/A   Mostly Cloudy
5:51 AM 52.0 °F 37.9 °F 59% 29.99 in 10.0 mi South 9.2 mph - N/A   Clear
6:51 AM 54.0 °F 39.0 °F 57% 30.01 in 10.0 mi SSW 10.4 mph - N/A   Mostly Cloudy
7:51 AM 55.0 °F 42.1 °F 62% 30.04 in 10.0 mi South 8.1 mph - N/A   Mostly Cloudy
8:51 AM 61.0 °F 44.1 °F 54% 30.05 in 10.0 mi South 9.2 mph - N/A   Mostly Cloudy
9:51 AM 63.0 °F 46.0 °F 54% 30.03 in 10.0 mi South 15.0 mph - N/A   Clear
10:51 AM 64.9 °F 46.9 °F 52% 30.02 in 10.0 mi SSE 24.2 mph 29.9 mph N/A   Clear
11:51 AM 64.9 °F 46.9 °F 52% 30.04 in 10.0 mi South 17.3 mph 26.5 mph N/A   Mostly Cloudy
12:51 PM 66.9 °F 48.0 °F 51% 30.02 in 10.0 mi SSW 17.3 mph 25.3 mph N/A   Mostly Cloudy
1:51 PM 66.9 °F 48.9 °F 52% 30.02 in 10.0 mi South 15.0 mph 20.7 mph N/A   Mostly Cloudy
2:44 PM 66.2 °F 50.0 °F 56% 30.03 in 10.0 mi South 16.1 mph - N/A   Overcast
2:47 PM 66.2 °F 48.2 °F 52% 30.03 in 10.0 mi South 18.4 mph 23.0 mph N/A   Overcast
2:51 PM 64.9 °F 48.9 °F 56% 30.03 in 10.0 mi South 18.4 mph 23.0 mph N/A   Overcast
2:59 PM 64.4 °F 48.2 °F 56% 30.03 in 10.0 mi South 15.0 mph - N/A   Overcast
3:51 PM 66.0 °F 50.0 °F 56% 30.01 in 10.0 mi South 18.4 mph - N/A   Mostly Cloudy
4:51 PM 64.9 °F 50.0 °F 58% 30.00 in 10.0 mi South 15.0 mph - N/A   Mostly Cloudy
5:51 PM 64.0 °F 48.9 °F 58% 30.01 in 10.0 mi SSE 17.3 mph - N/A   Mostly Cloudy
6:51 PM 64.0 °F 50.0 °F 60% 30.01 in 10.0 mi South 17.3 mph 24.2 mph N/A   Mostly Cloudy
7:51 PM 61.0 °F 48.9 °F 64% 30.01 in 10.0 mi South 15.0 mph 24.2 mph N/A   Scattered Clouds
8:51 PM 61.0 °F 48.9 °F 64% 30.00 in 10.0 mi SSE 15.0 mph - N/A   Scattered Clouds
9:51 PM 60.1 °F 48.9 °F 67% 30.02 in 10.0 mi South 10.4 mph - N/A   Scattered Clouds
10:51 PM 59.0 °F 48.0 °F 67% 30.03 in 10.0 mi South 11.5 mph - N/A   Scattered Clouds
11:51 PM 59.0 °F 48.0 °F 67% 30.03 in 10.0 mi South 9.2 mph - N/A   Clear